Regional Weather Roundup
Issued by NWS

Home | Current Version | Previous Version | Graphics & Text | Print | Product List | Glossary On
Versions: 1 2 3 4 5 6 7 8 9 10 11 12 13 14 15 16 17 18 19 20 21 22 23 24 25 26 27 28 29 30 31 32 33 34 35 36 37 38 39 40 41 42 43 44 45 46 47 48 49 50
262
ASUS43 KFSD 211010
RWRSD

WEATHER ROUNDUP FOR SOUTH DAKOTA
NATIONAL WEATHER SERVICE SIOUX FALLS SD
400 AM CST TUE FEB 21 2017

NOTE: "FAIR" INDICATES FEW OR NO CLOUDS BELOW 12,000 FEET WITH NO
SIGNIFICANT WEATHER AND/OR OBSTRUCTIONS TO VISIBILITY.


SDZ001>005-009-010-012>017-211100-
NORTHWEST AND NORTH CENTRAL SOUTH DAKOTA

CITY           SKY/WX    TMP DP  RH WIND       PRES   REMARKS
BUFFALO          N/A     44  32  62 SW16      29.67R
FAITH            N/A     44  33  65 W15       29.73R
MOBRIDGE       MOCLDY    40  29  64 S14       29.67F
$$

SDZ012>016-024>037-041>051-057-063-072>074-211100-
SOUTHWEST AND SOUTH CENTRAL SOUTH DAKOTA

CITY           SKY/WX    TMP DP  RH WIND       PRES   REMARKS
RAPID CTY ARPT CLOUDY    56  29  35 SW16G23   29.78F
PIERRE         CLEAR     41  28  60 W8        29.75S
CUSTER         CLEAR     42  28  57 W12G25    29.85F
ELLSWORTH AFB  CLEAR     54  30  38 SW14      29.76S
PHILIP         CLEAR     55  32  41 W20       29.76S
PINE RIDGE     CLEAR     34  27  75 E3        29.87F
SPEARFISH      FAIR      54  30  40 SW33G41   29.75F
WINNER         FAIR      46  28  49 SW16      29.80S
$$

SDZ004>011-016>023-039-040-211100-
NORTHEAST SOUTH DAKOTA

CITY           SKY/WX    TMP DP  RH WIND       PRES   REMARKS
ABERDEEN       CLEAR     34  31  88 SE10      29.76F WCI  26
WATERTOWN      CLEAR     33  31  92 SE7       29.81F WCI  27
BROOKINGS      CLEAR     35  34  96 S7        29.84F WCI  29
SISSETON         N/A     35  32  88 S9        29.78F WCI  28
$$

SDZ017-020-022-023-036>040-048>070-211100-
SOUTHEAST SOUTH DAKOTA

CITY           SKY/WX    TMP DP  RH WIND       PRES   REMARKS
SIOUX FALLS    CLEAR     29  29 100 SW5       29.88S FOG     WCI  24
HURON          CLEAR     37  33  85 S10       29.79F
CHAMBERLAIN    CLEAR     43  32  65 SW8       29.79S
MITCHELL       CLEAR     35  31  85 S10       29.83F WCI  27
YANKTON        CLEAR     34  30  86 SE3       29.89S
$$

ABBREVIATIONS USED IN REMARKS
   TC - TEMPERATURE IN CELSIUS
  WCI - WIND CHILL INDEX
   HX - HEAT INDEX
  VSB - VISIBILITY





USA.gov is the U.S. government's official web portal to all federal, state and local government web resources and services.